sat.trackr.live / text

‹ back to catalog

HULIANWANG DIGUI-74

NORAD 65306 · 2025-187B

PAYLOAD ACTIVE UNKNOWN

§ Identity

Operator
Country
PRC
Launch date
2025-08-25
Launch site
WSC
Launch vehicle
Mass (kg)
RCS (m²)

External: N2YO · Heavens-Above · Gunter

§ Orbital elements

Epoch: 2026-09-20T21:35:21.698016Z

Period
108.33 min
Inclination
50.0084°
Eccentricity
0.0000728
Mean motion
13.29324516 rev/d
Perigee alt
1,148.8 km
Apogee alt
1,149.9 km
Semi-major
7,527.4 km
B*
3.9478e-5
RAAN
222.5978°
Arg perigee
2.0086°
Mean anomaly
358.0790°
Rev number
5,243

§ Raw data

HULIANWANG DIGUI-741 65306U 25187B   26263.89955669 -.00000106  00000+0  39478-4 0  99912 65306  50.0084 222.5978 0000728   2.0086 358.0790 13.29324516 52439

JSON: /api/v1/satellites/65306 · /tle

For live sub-satellite position, see the globe view (requires WebGL).

§ Visibility from observer

Set your observer location to see the next 7 days of passes ≥ 10°. The values pass through the URL so the page stays shareable.

No JS? Fill the form by hand. The geolocation button needs JavaScript.